Overview Statistics Trail Chart Weather Telemetry Raw packets
 

This is the latest recevied weather packets stored in our database for station/object NO9B. If no packets are shown the sender has not sent any weather packets the latest 10 day(s).

<< 77 78 79 80 81 82 83 >>
Time Temp. Humidity Pressure Rain* Wind** Luminosity Snow
1788137965 23.33° C 89% 1015.2 hPa 0 mm - 0 W/m² -
1788137661 23.33° C 90% 1015.3 hPa 0 mm - 0 W/m² -
1788137360 23.33° C 90% 1015 hPa 0 mm - 0 W/m² -
1788137057 23.33° C 90% 1015.2 hPa 0 mm - 0 W/m² -
1788136758 23.33° C 90% 1015.2 hPa 0 mm - 0 W/m² -
1788136454 23.33° C 90% 1014.9 hPa 0 mm - 0 W/m² -
1788136154 23.33° C 89% 1014.9 hPa 0 mm - 1 W/m² -
1788135853 23.33° C 89% 1014.9 hPa 0 mm - 1 W/m² -
1788135548 23.33° C 89% 1014.8 hPa 0 mm - 2 W/m² -
1788135243 23.89° C 89% 1015.1 hPa 0 mm - 3 W/m² -
1788134941 23.89° C 88% 1014.9 hPa 0 mm - 7 W/m² -
1788134636 23.89° C 88% 1014.7 hPa 0 mm - 8 W/m² -
1788134334 23.89° C 88% 1014.9 hPa 0 mm - 6 W/m² -
1788134029 23.89° C 87% 1014.8 hPa 0 mm - 5 W/m² -
1788133724 23.89° C 88% 1014.8 hPa 0 mm - 6 W/m² -
1788133420 23.89° C 88% 1014.5 hPa 0 mm - 6 W/m² -
1788133116 23.89° C 88% 1014.7 hPa 0 mm - 7 W/m² -
1788132811 24.44° C 87% 1014.7 hPa 0 mm - 11 W/m² -
1788132506 24.44° C 87% 1014.9 hPa 0 mm - 16 W/m² -
1788132202 24.44° C 87% 1015 hPa 0 mm - 21 W/m² -
1788131899 24.44° C 87% 1014.8 hPa 0 mm - 24 W/m² -
1788131599 24.44° C 87% 1014.8 hPa 0 mm - 27 W/m² -
1788131293 24.44° C 87% 1014.8 hPa 0 mm - 22 W/m² -
1788130988 24.44° C 87% 1014.8 hPa 0 mm - 17 W/m² -
1788130688 24.44° C 87% 1014.9 hPa 0 mm - 23 W/m² -

* Rain latest hour (hover to see other rain measurements)
** Current wind speed in m/s (hover to see current wind gust speed)